Flag for Canada Weather past 2 weeks in Iqaluit, Nunavut Territory, Canada

Now
37 °F

Partly cloudy.


Feels Like: 37 °F
Forecast: 35 / 44 °F
Wind: No wind

Location: Iqaluit

Current Time: Aug 29, 2014 at 5:09:06 AM

Latest Report: Aug 29, 2014 at 4:00 AM


Visibility: 15 mi

Pressure: 29.77 "Hg

Humidity: 87%

Dew point: 34 °F

Location of IqaluitLocation

Historic Weather in Iqaluit — Graph

°F

Iqaluit temperature yesterday

Maximum temperature yesterday: 46 °F (at 3:00 PM)
Minimum temperature yesterday: 34 °F (at 4:00 AM)
Average temperature yesterday: 40 °F

Past Weeks' High & Low Weather Summary

 TemperatureHumidityPressure
High55 °F (Aug 20, 2:00 PM)100% (Aug 17, 2:00 AM)30.34 "Hg (Aug 17, 2:00 AM)
Low34 °F (Aug 28, 4:00 AM)62% (Aug 26, 12:00 PM)29.68 "Hg (Aug 15, 9:00 PM)
Average43 °F86%29.97 "Hg
* Reported Aug 14 4:00 AM — Aug 29 4:00 AM, Iqaluit, Weather by CustomWeather, © 2014

Note: Actual official high and low records may vary slightly from our data, if they occured in-between our weather recording intervals... More about our weather records

Advertising

Iqaluit weather history for previous 24 hours

 ConditionsComfort  
Time TempWeatherWind HumidityBarometerVisibility
4:00 AM
Aug 29
37 °FPartly cloudy.No wind87%29.77 "Hg15 mi
3:00 AM39 °FPassing clouds.2 mph81%29.78 "Hg15 mi
2:00 AM37 °FPassing clouds.5 mph87%29.80 "Hg15 mi
1:00 AM37 °FPassing clouds.3 mph87%29.82 "Hg15 mi
12:00 AM41 °FPassing clouds.3 mph81%29.83 "Hg15 mi
11:00 PM
Aug 28
41 °FPassing clouds.No wind81%29.84 "Hg15 mi
10:00 PM39 °FPassing clouds.2 mph87%29.85 "Hg20 mi
9:00 PM43 °FPassing clouds.No wind76%29.87 "Hg20 mi
8:00 PM43 °FPassing clouds.No wind76%29.88 "Hg30 mi
7:00 PM45 °FScattered clouds.3 mph71%29.88 "Hg30 mi
6:00 PM46 °FPassing clouds.5 mph71%29.90 "Hg30 mi
5:00 PM46 °FPassing clouds.2 mph66%29.91 "Hg30 mi
4:00 PM46 °FPassing clouds.3 mph66%29.92 "Hg30 mi
3:00 PM46 °FPassing clouds.6 mph71%29.92 "Hg30 mi
2:00 PM45 °FPassing clouds.5 mph76%29.93 "Hg30 mi
1:00 PM43 °FPassing clouds.7 mph76%29.95 "Hg30 mi
12:00 PM43 °FPassing clouds.3 mph81%29.95 "Hg30 mi
11:00 AM39 °FScattered clouds.6 mph81%29.96 "Hg30 mi
10:00 AM39 °FBroken clouds.3 mph87%29.98 "Hg30 mi
9:00 AM39 °FScattered clouds.5 mph81%29.98 "Hg30 mi
8:00 AM37 °FScattered clouds.No wind87%29.98 "Hg30 mi
7:00 AM37 °FPassing clouds.No wind87%29.98 "Hg30 mi
6:00 AM34 °FPassing clouds.2 mph93%29.98 "Hg30 mi
5:00 AM34 °FPassing clouds.No wind87%29.98 "Hg30 mi
Weather by CustomWeather, © 2014

See weather overviewHow to use our weather pages